Location: Oberkirch
(48.5323°N, 8.0787°E)
Time: 18:16:23
(UTC+00:00)

NANOSAT C BR1 - Visible Passes

Search period start: 07 March 2026 00:00
Search period end: 17 March 2026 00:00
Orbit: 479 x 485 km, 98.1° (Epoch: 7 March)

Date Brightness Start Highest point End Pass type
(mag) Time Alt. Az. Time Alt. Az. Time Alt. Az.
7 Mar ? 18:18:13 10° SSW 18:21:34 37° W 18:24:57 10° NNW visible
8 Mar ? 17:52:41 10° S 17:56:15 78° WSW 17:59:52 10° NNW visible
9 Mar ? 19:02:50 10° WSW 19:04:37 13° W 19:06:24 10° WNW visible
10 Mar ? 18:36:06 10° SSW 18:39:04 25° W 18:42:05 10° NW visible
11 Mar ? 18:10:07 10° S 18:13:35 48° W 18:17:05 10° NNW visible
13 Mar ? 18:53:53 10° SW 18:56:16 17° W 18:58:40 10° NW visible
14 Mar ? 18:27:24 10° SSW 18:30:37 31° W 18:33:52 10° NNW visible
15 Mar ? 18:01:29 10° S 18:05:02 65° WSW 18:08:36 10° NNW visible
16 Mar ? 19:11:58 10° WSW 19:13:09 11° W 19:14:22 10° WNW visible
